Regional Weather Roundup
Issued by NWS Green Bay, WI

Home | Current Version | Previous Version | Graphics & Text | Print | Product List | Glossary Off
Versions: 1 2 3 4 5 6 7 8 9 10 11 12 13 14 15 16 17 18 19 20 21 22 23 24 25 26 27 28 29 30 31 32 33 34 35 36 37 38 39 40 41 42 43 44 45 46 47 48 49 50

000
ASUS43 KGRB 252311
RWRGRB

NORTH-CENTRAL AND NORTHEAST WISCONSIN REGIONAL WEATHER ROUNDUP
NATIONAL WEATHER SERVICE GREEN BAY WI
600 PM CDT MON MAY 25 2015

WIZ005-009-010>012-018-019-260000-
NORTH CENTRAL WISCONSIN

CITY           SKY/WX    TMP DP  RH WIND       PRES   REMARKS
IRONWOOD       PTSUNNY   61  61 100 W10       29.69R
MANITOWISH WTR CLOUDY    65  59  80 SW16G24   29.74R
ARBOR VITAE    PTSUNNY   67  59  75 W12G20    29.76R
EAGLE RIVER    PTSUNNY   67  58  74 SW13      29.75R
LAND O LAKES   CLOUDY    67  60  76 SW7G16    29.75S
RHINELANDER    PTSUNNY   70  58  65 SW13G22   29.77R
PHILLIPS       CLOUDY    66  58  77 W9G20     29.76R
ANTIGO         PTSUNNY   68  60  74 SW14      29.78S
TOMAHAWK       PTSUNNY   70  58  64 SW8G16    29.77S
MERRILL        MOSUNNY   70  60  71 W9        29.78R
$$

WIZ013-073-260000-
NORTHEAST WISCONSIN

CITY           SKY/WX    TMP DP  RH WIND       PRES   REMARKS
IRON MOUNTAIN  PTSUNNY   71  60  68 W12G22    29.72S
MARINETTE      SUNNY     75  61  60 W7        29.74S
OCONTO         MOSUNNY   77  60  56 W16G24    29.74F
$$

WIZ017-030-035>037-045-260000-
CENTRAL WISCONSIN

CITY           SKY/WX    TMP DP  RH WIND       PRES   REMARKS
MEDFORD        MOSUNNY   71  61  71 SW10      29.77S
WAUSAU         MOSUNNY   71  60  68 W7        29.75S
MOSINEE        PTSUNNY   70  61  73 SW9       29.78
MARSHFIELD     MOSUNNY   74  59  59 W10       29.77R
WISC RAPIDS    TSTM      67  60  78 SW14G21   29.80R
STEVENS POINT  PTSUNNY   73  58  58 SW10G17   29.77F
WAUPACA        RAIN      78  60  55 S18       29.78R
SHAWANO        MOSUNNY   77  60  54 W13       29.76F
CLINTONVILLE   CLOUDY    75  59  57 SW10      29.76S
$$

WIZ038-039-048-051-260000-
FOX VALLEY

CITY           SKY/WX    TMP DP  RH WIND       PRES   REMARKS
NWS GREEN BAY  MOSUNNY   77  63  61 SW9       29.77F
APPLETON       PTSUNNY   75  61  60 SW14      29.79F
OSHKOSH        MOSUNNY   76  62  62 SW12      29.79F
FOND DU LAC    MOSUNNY   77  60  55 SW17G25   29.81S
$$

WIZ022-050-052-260000-
EAST CENTRAL WISCONSIN

CITY           SKY/WX    TMP DP  RH WIND       PRES   REMARKS
STURGEON BAY   SUNNY     75  61  60 SW17G23   29.79S
MANITOWOC      MOSUNNY   78  62  57 SW17G25   29.80S
SHEBOYGAN      MOSUNNY   76  61  59 SW14G25   29.82S
$$

LMZ563-521-522-541>543-260000-
LAKESHORE

STATION/POSITION TIME  TEMP    WIND        PRES    VSBY  WAVE
                       AIR SEA DIR/SP/G                  HT/PER
                 (UTC) (F)     (DEG/KT/KT) (MB)    (MI)  (FT/S)
SHEBOYGAN LKSHOR 2300          210/ 15/ 19 1009.8S
KEWAUNEE LKSHORE 2200          240/  9/ 20 1007.9R
NORTHPORT PIER   2200   58     160/  4/  9 1007.5R
N MID LAKE BUOY  2250   42 37  200/ 16/ 19 1007.9S         4/ 6
SISTER BAY LKSHO 2217   74     210/ 16/ 21   N/A
CHAMBERS ISLAND  2200   70     200/  6/ 13 1007.1S
MENOMINEE LKSHOR 2200   75     220/ 14/ 20 1007.7R
$$



USA.gov is the U.S. government's official web portal to all federal, state and local government web resources and services.